User: anonymous   Login
Location: Plymouth
(43.7570°N, 71.6890°W)
Time: 21:33:10
(UTC-05:00)
Language:

Cosmos 2016 Rocket - Orbit

View from above orbital plane
View from above orbital plane
View from above satellite
View from above satellite

Ground track
Ground track

The orbit data is extracted from the following two-line orbital elements,

1 19922U 89028B   15062.29880623  .00000087  00000-0  71779-4 0  9992
2 19922 082.9624 327.5786 0037817 070.3856 077.4847 13.77139722302047
Epoch (UTC): 03 March 2015 07:10:16
Eccentricity: 0.0037817
inclination: 82.9624°
perigee height: 946 km
apogee height: 1002 km
right ascension of ascending node: 327.5786°
argument of perigee: 70.3856°
revolutions per day: 13.77139722
mean anomaly at epoch: 77.4847°
orbit number at epoch: 30204

The dashed part of the orbit path shows where the satellite is in the earth's shadow,  

DLR